[TLELIST] Archives

 

Current TLEs

March 31st 2008 PDT

HST 1 20580U 90037B 08090.18581840 .00000450 00000-0 22004-4 0 1034 2 20580 028.4680 118.4767 0003731 262.0630 097.9543 15.00356594783106 ISS (ZARYA) 1 25544U 98067A 08090.51450352 .00039077 00000-0 24120-3 0 2117 2 25544 051.6410 061.9599 0000534 348.2103 113.0468 15.76733677536112 CXO 1 25867U 99040B 08090.87500000 .00000368 00000-0 10000-3 0 1811 2 25867 063.3837 082.5150 6697528 279.8405 356.6342 00.37806438 3336 ____________________________________________________________________ These 2-Line ...Continue Reading

Current TLEs

March 30th 2008 PDT

HST 1 20580U 90037B 08088.45629801 .00000406 00000-0 18571-4 0 1025 2 20580 028.4679 129.7560 0003753 244.3208 115.6992 15.00355291782847 ISS (ZARYA) 1 25544U 98067A 08089.49970104 .00017043 00000-0 10822-3 0 2050 2 25544 051.6421 067.1864 0000903 359.9434 097.2772 15.76627819535955 CXO 1 25867U 99040B 08088.25000000 .00000288 00000-0 10000-3 0 1805 2 25867 063.3728 082.5745 6692224 279.8670 359.2686 00.37806292 3324 ____________________________________________________________________ These 2-Line ...Continue Reading

Current TLEs

March 29th 2008 PDT

HST 1 20580U 90037B 08086.46069789 +.00000371 +00000-0 +15883-4 0 01122 2 20580 028.4673 142.7809 0003907 224.8613 135.1662 15.00354077782545 ISS (ZARYA) 1 25544U 98067A 08088.48471299 .00014214 00000-0 91137-4 0 1997 2 25544 051.6418 072.4185 0001054 353.0910 099.3424 15.76580827535794 CXO 1 25867U 99040B 08088.25000000 .00000288 00000-0 10000-3 0 1805 2 25867 063.3728 082.5745 6692224 279.8670 359.2686 00.37806292 3324 ____________________________________________________________________ These 2-Line ...Continue Reading

Current TLEs

March 28th 2008 PDT

HST 1 20580U 90037B 08087.39197717 .00000381 00000-0 16640-4 0 1019 2 20580 028.4678 136.6962 0003820 233.4753 126.5485 15.00354563782689 ISS (ZARYA) 1 25544U 98067A 08087.35392708 .00010644 00000-0 69403-4 0 1926 2 25544 051.6420 078.2530 0000589 331.8446 178.3171 15.76538666535617 CXO 1 25867U 99040B 08088.25000000 .00000288 00000-0 10000-3 0 1805 2 25867 063.3728 082.5745 6692224 279.8670 359.2686 00.37806292 3324 ____________________________________________________________________ These 2-Line ...Continue Reading

Current TLEs

March 27th 2008 PDT

HST 1 20580U 90037B 08086.19461751 .00000360 00000-0 15039-4 0 1005 2 20580 028.4674 144.5173 0003967 222.6936 137.3344 15.00353905782506 ISS (ZARYA) 1 25544U 98067A 08086.46579853 .00040515 00000-0 25206-3 0 1871 2 25544 051.6402 082.8317 0000838 322.4927 183.6900 15.76536481535474 CXO 1 25867U 99040B 08085.54166667 .00000235 00000-0 10000-3 0 1796 2 25867 063.3607 082.6288 6685894 279.9097 350.5317 00.37805978 3316 ____________________________________________________________________ These 2-Line ...Continue Reading

Current TLEs

March 26th 2008 PDT

HST 1 20580U 90037B 08084.53161537 .00000350 00000-0 14223-4 0 990 2 20580 028.4676 155.3623 0003993 205.9318 154.1071 15.00353214782254 ISS (ZARYA) 1 25544U 98067A 08085.51451016 .00042089 00000-0 26188-3 0 1807 2 25544 051.6408 087.7332 0000845 303.3035 200.2675 15.76516385535327 CXO 1 25867U 99040B 08085.54166667 .00000235 00000-0 10000-3 0 1796 2 25867 063.3607 082.6288 6685894 279.9097 350.5317 00.37805978 3316 ____________________________________________________________________ These 2-Line ...Continue Reading

Current TLEs

March 25th 2008 PDT

HST 1 20580U 90037B 08082.66905242 .00000361 00000-0 15094-4 0 989 2 20580 028.4677 167.5086 0003975 187.0143 173.0390 15.00352605781974 ISS (ZARYA) 1 25544U 98067A 08084.37273694 .00010082 00000-0 66410-4 0 1748 2 25544 051.6375 093.6150 0001253 297.7308 201.7059 15.76382746535141 CXO 1 25867U 99040B 08082.91666667 .00000224 00000-0 10000-3 0 1786 2 25867 063.3460 082.6709 6680476 279.9647 353.1178 00.37806218 3304 ____________________________________________________________________ These 2-Line ...Continue Reading

Current TLEs

March 24th 2008 PDT

HST 1 20580U 90037B 08082.66905242 .00000361 00000-0 15094-4 0 989 2 20580 028.4677 167.5086 0003975 187.0143 173.0390 15.00352605781974 ISS (ZARYA) 1 25544U 98067A 08083.48805414 .00005757 00000-0 39716-4 0 1708 2 25544 051.6392 098.1780 0001101 299.5053 216.0028 15.76354713535001 CXO 1 25867U 99040B 08082.91666667 .00000224 00000-0 10000-3 0 1786 2 25867 063.3460 082.6709 6680476 279.9647 353.1178 00.37806218 3304 ____________________________________________________________________ These 2-Line ...Continue Reading

Current TLEs

March 23rd 2008 PDT

HST 1 20580U 90037B 08081.53821026 .00000365 00000-0 15388-4 0 970 2 20580 028.4676 174.8826 0003971 175.6379 184.4248 15.00352180781804 ISS (ZARYA) 1 25544U 98067A 08082.53064509 .00039741 00000-0 24919-3 0 1635 2 25544 051.6408 103.1144 0001538 291.4178 187.2716 15.76367205534858 CXO 1 25867U 99040B 08082.91666667 .00000224 00000-0 10000-3 0 1786 2 25867 063.3460 082.6709 6680476 279.9647 353.1178 00.37806218 3304 ____________________________________________________________________ These 2-Line ...Continue Reading

Current TLEs

March 22nd 2008 PDT

HST 1 20580U 90037B 08079.67564565 .00000396 00000-0 17827-4 0 967 2 20580 028.4678 187.0286 0003952 156.7919 203.2848 15.00351632781527 ISS (ZARYA) 1 25544U 98067A 08081.52285654 .00009475 00000-0 62924-4 0 1561 2 25544 051.6387 108.3029 0001092 309.6336 206.2218 15.76284468534696 CXO 1 25867U 99040B 08072.33333333 .00000224 00000-0 10000-3 0 1771 2 25867 063.3008 082.9471 6662777 280.1753 352.0919 00.37803691 3265 ____________________________________________________________________ These 2-Line ...Continue Reading
  • This mailing list is a public mailing list - anyone may join or leave, at any time.
  • This mailing list is announce-only.

International Space Station (ISS) / Hubble Space Telescope (HST) / Chandra X-Ray Observatory Orbital Data via EMAIL

Privacy Policy:

Private list